Location: Newark
(51.7333°N, 0.4667°E)
Time: 07:31:03
(UTC+00:00)

N. Korean satellite - Visible Passes

Search period start: 13 December 2019 00:00
Search period end: 23 December 2019 00:00
Orbit: 455 x 507 km, 97.2° (Epoch: 12 December)

Date Brightness Start Highest point End Pass type
(mag) Time Alt. Az. Time Alt. Az. Time Alt. Az.
13 Dec 8.7 05:18:18 10° NE 05:21:21 27° E 05:24:22 10° SSE visible
13 Dec 7.4 06:51:42 10° N 06:54:44 27° WNW 06:57:42 10° SW visible
13 Dec 8.6 17:31:56 10° SSW 17:35:16 31° W 17:38:35 10° NNW visible
14 Dec 9.7 04:53:37 10° NE 04:55:42 15° E 04:57:46 10° SE visible
14 Dec 6.6 06:25:59 10° N 06:29:24 49° WNW 06:32:46 10° SSW visible
14 Dec 7.3 17:06:05 10° S 17:09:44 59° W 17:13:22 10° NNW visible
15 Dec 6.5 06:00:28 10° NNE 06:04:00 83° ESE 06:07:28 10° SSW visible
15 Dec 6.5 16:40:37 10° SSE 16:44:17 71° ENE 16:47:56 10° N visible
15 Dec 10.1 18:16:40 10° WSW 18:18:07 12° W 18:19:34 10° WNW visible
16 Dec 7.8 05:35:08 10° NNE 05:38:29 41° E 05:41:47 10° S visible
16 Dec 7.9 07:09:08 10° NNW 07:11:38 19° WNW 07:14:07 10° WSW visible
16 Dec 9.4 17:49:35 10° SW 17:52:26 21° W 17:55:17 10° NW visible
17 Dec 9.1 05:10:06 10° NE 05:12:54 22° E 05:15:38 10° SE visible
17 Dec 7.2 06:43:12 10° N 06:46:22 32° WNW 06:49:29 10° SW visible
17 Dec 8.2 17:23:24 10° SSW 17:26:51 38° W 17:30:16 10° NNW visible
18 Dec 9.9 04:45:45 10° ENE 04:47:12 12° E 04:48:38 10° ESE visible
18 Dec 6.4 06:17:33 10° N 06:21:01 61° WNW 06:24:25 10° SSW visible
18 Dec 6.8 16:57:40 10° S 17:01:20 74° WSW 17:04:58 10° NNW visible
19 Dec 6.8 05:52:05 10° NNE 05:55:35 66° ESE 05:58:59 10° S visible
19 Dec 6.6 16:32:20 10° SSE 16:35:55 57° ENE 16:39:29 10° N visible
19 Dec 9.9 18:07:37 10° WSW 18:09:38 14° W 18:11:40 10° NW visible
20 Dec 8.3 05:26:50 10° NNE 05:30:02 33° E 05:33:10 10° SSE visible
20 Dec 7.7 07:00:33 10° NNW 07:03:17 22° WNW 07:05:59 10° WSW visible
20 Dec 9.1 17:40:56 10° SSW 17:43:59 25° W 17:47:02 10° NW visible
21 Dec 9.4 05:01:56 10° NE 05:04:24 18° E 05:06:50 10° SE visible
21 Dec 6.9 06:34:43 10° N 06:37:59 38° WNW 06:41:12 10° SW visible
21 Dec 7.8 17:14:54 10° S 17:18:24 46° W 17:21:55 10° NNW visible
22 Dec 6.3 06:09:07 10° N 06:12:35 77° WNW 06:16:01 10° SSW visible
22 Dec 6.6 16:49:17 10° SSE 16:52:55 89° ESE 16:56:32 10° NNW visible
